Location: Ladrillo (historical)
(32.8195°N, 117.2231°W)
Time: 10:11:52
(UTC+00:00)

Vanguard 3 - Pass Details

Date: 03 March 2021
Orbit: 508 x 3262 km, 33.3° (Epoch: 12 April)

Event Time Altitude Azimuth Distance (km) Brightness Sun altitude
Rises 00:25:23 0° 258° (WSW) 7,213 13.8 15.9°
Reaches altitude 10° 00:30:26 10° 258° (WSW) 6,095 14.2 14.9°
Maximum altitude 00:49:08 89° 173° (S) 2,404 9.7 11.1°
Drops below altitude 10° 01:00:20 10° 83° (E) 3,894 10.0 8.8°
Sets 01:02:51 0° 84° (E) 4,587 10.3 8.3°
